CTV390 WARR-WAFF

Flight info

Callsign CTV390
Flight time 1h 52m
Altitude 39000
Route RAMPY W31 BDM W18 BPN W36 EMSIV
Aircraft A20N/M-SDE2E3FGHIRWXY/LB1

Departure

Time 2026-04-30 05:34
Airport Juanda International Airport (WARR)

Arrival

Time 2026-04-30 07:26
Airport Mutiara - SIS Al-Jufrie Airport (WAFF)
Time Latitude Longitude Altitude Speed Heading
2026-04-30 05:17 -7.37615 112.79647 9 ft 0 kts
2026-04-30 05:22 -7.37630 112.79644 9 ft 4 kts
2026-04-30 05:23 -7.37657 112.79640 9 ft 4 kts
2026-04-30 05:23 -7.37684 112.79638 9 ft 4 kts 355°
2026-04-30 05:23 -7.37706 112.79645 9 ft 4 kts 292°
2026-04-30 05:23 -7.37708 112.79649 9 ft 1 kts 279°
2026-04-30 05:26 -7.37708 112.79645 9 ft 2 kts 279°
2026-04-30 05:26 -7.37704 112.79620 9 ft 5 kts 277°
2026-04-30 05:26 -7.37697 112.79571 9 ft 9 kts 279°
2026-04-30 05:27 -7.37687 112.79502 9 ft 11 kts 279°
2026-04-30 05:27 -7.37672 112.79414 9 ft 14 kts 280°
2026-04-30 05:27 -7.37656 112.79315 9 ft 15 kts 279°
2026-04-30 05:27 -7.37641 112.79220 9 ft 12 kts 279°
2026-04-30 05:28 -7.37626 112.79128 9 ft 12 kts 274°
2026-04-30 05:28 -7.37678 112.79080 10 ft 11 kts 234°
2026-04-30 05:28 -7.37731 112.79077 8 ft 9 kts 163°
2026-04-30 05:28 -7.37800 112.79076 8 ft 11 kts 187°
2026-04-30 05:29 -7.37860 112.79030 9 ft 13 kts 260°
2026-04-30 05:29 -7.37848 112.78935 10 ft 15 kts 279°
2026-04-30 05:29 -7.37830 112.78823 9 ft 17 kts 279°
2026-04-30 05:29 -7.37809 112.78694 8 ft 20 kts 279°
2026-04-30 05:30 -7.37786 112.78552 9 ft 21 kts 279°
2026-04-30 05:30 -7.37762 112.78402 10 ft 23 kts 279°
2026-04-30 05:30 -7.37736 112.78239 9 ft 24 kts 280°
2026-04-30 05:30 -7.37710 112.78081 9 ft 23 kts 279°
2026-04-30 05:31 -7.37684 112.77917 9 ft 24 kts 278°
2026-04-30 05:31 -7.37656 112.77746 9 ft 25 kts 279°
2026-04-30 05:31 -7.37629 112.77578 10 ft 14 kts 279°
2026-04-30 05:31 -7.37613 112.77475 8 ft 16 kts 279°
2026-04-30 05:32 -7.37653 112.77385 10 ft 11 kts 195°
2026-04-30 05:32 -7.37661 112.77383 8 ft 0 kts 192°
2026-04-30 05:32 -7.37671 112.77381 8 ft 3 kts 192°
2026-04-30 05:33 -7.37710 112.77376 8 ft 9 kts 185°
2026-04-30 05:33 -7.37778 112.77421 9 ft 15 kts 106°
2026-04-30 05:33 -7.37782 112.77444 9 ft 4 kts 99°
2026-04-30 05:33 -7.37813 112.77630 9 ft 66 kts 99°
2026-04-30 05:34 -7.37930 112.78362 8 ft 141 kts 99°
2026-04-30 05:34 -7.38115 112.79475 393 ft 167 kts 99°
2026-04-30 05:34 -7.38326 112.80650 1137 ft 176 kts 97°
2026-04-30 05:34 -7.38501 112.81918 1618 ft 194 kts 96°
2026-04-30 05:35 -7.38689 112.83339 2047 ft 215 kts 97°
2026-04-30 05:35 -7.38920 112.84899 2468 ft 236 kts 98°
2026-04-30 05:35 -7.39196 112.86606 2931 ft 257 kts 99°
2026-04-30 05:35 -7.39503 112.88419 3715 ft 264 kts 100°
2026-04-30 05:36 -7.39822 112.90257 4593 ft 269 kts 98°
2026-04-30 05:36 -7.39797 112.92134 5477 ft 271 kts 76°
2026-04-30 05:36 -7.38990 112.93850 6362 ft 275 kts 54°
2026-04-30 05:36 -7.37830 112.95402 7204 ft 279 kts 53°
2026-04-30 05:37 -7.36646 112.96971 7982 ft 284 kts 53°
2026-04-30 05:37 -7.35448 112.98567 8763 ft 287 kts 53°
2026-04-30 05:37 -7.34239 113.00184 9534 ft 291 kts 53°
2026-04-30 05:37 -7.33015 113.01824 10274 ft 295 kts 53°
2026-04-30 05:38 -7.31739 113.03538 10564 ft 317 kts 53°
2026-04-30 05:38 -7.30370 113.05377 10785 ft 338 kts 53°
2026-04-30 05:38 -7.28935 113.07305 11298 ft 347 kts 53°
2026-04-30 05:38 -7.27430 113.09216 12043 ft 350 kts 46°
2026-04-30 05:39 -7.25532 113.10715 12726 ft 355 kts 30°
2026-04-30 05:39 -7.23223 113.11625 13420 ft 360 kts 14°
2026-04-30 05:39 -7.20769 113.12196 14097 ft 364 kts 14°
2026-04-30 05:39 -7.18288 113.12768 14756 ft 367 kts 14°
2026-04-30 05:40 -7.15789 113.13348 15414 ft 370 kts 14°
2026-04-30 05:40 -7.13266 113.13936 16024 ft 373 kts 14°
2026-04-30 05:40 -7.10727 113.14529 16634 ft 376 kts 14°
2026-04-30 05:40 -7.08171 113.15127 17218 ft 379 kts 14°
2026-04-30 05:41 -7.05585 113.15734 17767 ft 383 kts 14°
2026-04-30 05:41 -7.02985 113.16345 18320 ft 386 kts 14°
2026-04-30 05:41 -7.00352 113.16963 18856 ft 389 kts 14°
2026-04-30 05:41 -6.97702 113.17584 19362 ft 393 kts 14°
2026-04-30 05:42 -6.95030 113.18211 19850 ft 396 kts 14°
2026-04-30 05:42 -6.92333 113.18844 20357 ft 399 kts 14°
2026-04-30 05:42 -6.89611 113.19484 20617 ft 403 kts 14°
2026-04-30 05:42 -6.86915 113.20117 20716 ft 403 kts 14°
2026-04-30 05:43 -6.84179 113.20757 20816 ft 403 kts 14°
2026-04-30 05:43 -6.81437 113.21399 20876 ft 405 kts 14°
2026-04-30 05:43 -6.78698 113.22041 20879 ft 404 kts 14°
2026-04-30 05:43 -6.75954 113.22683 20879 ft 404 kts 14°
2026-04-30 05:44 -6.73214 113.23325 20881 ft 405 kts 14°
2026-04-30 05:44 -6.70479 113.23962 20877 ft 404 kts 14°
2026-04-30 05:44 -6.67736 113.24598 20879 ft 406 kts 14°
2026-04-30 05:44 -6.64990 113.25243 20878 ft 405 kts 15°
2026-04-30 05:45 -6.62248 113.25888 20879 ft 405 kts 15°
2026-04-30 05:45 -6.59504 113.26534 20876 ft 406 kts 15°
2026-04-30 05:45 -6.56763 113.27181 20881 ft 404 kts 15°
2026-04-30 05:45 -6.54015 113.27824 20878 ft 405 kts 15°
2026-04-30 05:46 -6.51271 113.28467 20879 ft 405 kts 15°
2026-04-30 05:46 -6.48524 113.29110 20933 ft 407 kts 15°
2026-04-30 05:46 -6.45755 113.29759 21405 ft 409 kts 15°
2026-04-30 05:46 -6.42979 113.30410 21877 ft 411 kts 15°
2026-04-30 05:47 -6.40181 113.31064 22305 ft 415 kts 15°
2026-04-30 05:47 -6.37357 113.31725 22719 ft 418 kts 15°
2026-04-30 05:47 -6.34516 113.32390 23138 ft 421 kts 15°
2026-04-30 05:47 -6.31653 113.33061 23526 ft 424 kts 15°
2026-04-30 05:48 -6.28809 113.33726 23921 ft 426 kts 15°
2026-04-30 05:48 -6.25929 113.34466 24289 ft 428 kts 20°
2026-04-30 05:48 -6.23143 113.35524 24662 ft 429 kts 26°
2026-04-30 05:48 -6.20454 113.36836 25011 ft 431 kts 28°
2026-04-30 05:49 -6.17756 113.38161 25388 ft 433 kts 27°
2026-04-30 05:49 -6.15041 113.39488 25730 ft 435 kts 27°
2026-04-30 05:49 -6.12308 113.40823 26059 ft 437 kts 27°
2026-04-30 05:49 -6.09568 113.42160 26392 ft 439 kts 27°
2026-04-30 05:50 -6.06814 113.43505 26702 ft 442 kts 27°
2026-04-30 05:50 -6.04043 113.44858 27008 ft 443 kts 27°
2026-04-30 05:50 -6.01263 113.46215 27279 ft 446 kts 27°
2026-04-30 05:50 -5.98465 113.47581 27583 ft 447 kts 27°
2026-04-30 05:51 -5.95657 113.48951 27886 ft 449 kts 27°
2026-04-30 05:51 -5.92880 113.50307 28166 ft 450 kts 27°
2026-04-30 05:51 -5.90052 113.51688 28435 ft 452 kts 27°
2026-04-30 05:51 -5.87217 113.53072 28699 ft 454 kts 27°
2026-04-30 05:52 -5.84372 113.54460 28944 ft 456 kts 27°
2026-04-30 05:52 -5.81514 113.55852 29222 ft 457 kts 27°
2026-04-30 05:52 -5.78648 113.57250 29484 ft 459 kts 27°
2026-04-30 05:52 -5.75770 113.58654 29712 ft 461 kts 27°
2026-04-30 05:53 -5.72879 113.60065 29946 ft 462 kts 27°
2026-04-30 05:53 -5.69983 113.61477 30207 ft 464 kts 27°
2026-04-30 05:53 -5.67073 113.62897 30490 ft 465 kts 27°
2026-04-30 05:53 -5.64159 113.64318 30749 ft 466 kts 27°
2026-04-30 05:54 -5.61234 113.65744 31025 ft 467 kts 27°
2026-04-30 05:54 -5.58314 113.67167 31404 ft 465 kts 26°
2026-04-30 05:54 -5.55406 113.68583 31760 ft 464 kts 26°
2026-04-30 05:54 -5.52507 113.69997 32131 ft 462 kts 26°
2026-04-30 05:55 -5.49622 113.71403 32479 ft 461 kts 26°
2026-04-30 05:55 -5.46743 113.72807 32820 ft 459 kts 26°
2026-04-30 05:55 -5.43878 113.74201 33150 ft 457 kts 26°
2026-04-30 05:55 -5.41019 113.75594 33453 ft 456 kts 26°
2026-04-30 05:56 -5.38171 113.76981 33753 ft 454 kts 26°
2026-04-30 05:56 -5.35333 113.78363 33991 ft 454 kts 26°
2026-04-30 05:56 -5.32494 113.79745 34238 ft 453 kts 26°
2026-04-30 05:56 -5.29660 113.81125 34485 ft 452 kts 26°
2026-04-30 05:57 -5.26868 113.82485 34704 ft 452 kts 26°
2026-04-30 05:57 -5.24040 113.83863 34913 ft 452 kts 26°
2026-04-30 05:57 -5.21209 113.85242 35122 ft 452 kts 26°
2026-04-30 05:57 -5.18380 113.86618 35306 ft 452 kts 26°
2026-04-30 05:58 -5.15549 113.87995 35490 ft 452 kts 26°
2026-04-30 05:58 -5.12716 113.89371 35728 ft 451 kts 26°
2026-04-30 05:58 -5.09892 113.90744 35938 ft 451 kts 26°
2026-04-30 05:58 -5.07064 113.92120 36099 ft 452 kts 26°
2026-04-30 05:59 -5.04235 113.93497 36301 ft 451 kts 26°
2026-04-30 05:59 -5.01410 113.94872 36473 ft 452 kts 26°
2026-04-30 05:59 -4.98576 113.96251 36634 ft 452 kts 26°
2026-04-30 05:59 -4.95753 113.97624 36891 ft 450 kts 26°
2026-04-30 06:00 -4.92946 113.99001 37153 ft 448 kts 26°
2026-04-30 06:00 -4.90158 114.00389 37386 ft 446 kts 27°
2026-04-30 06:00 -4.87387 114.01774 37653 ft 444 kts 26°
2026-04-30 06:00 -4.84628 114.03154 37801 ft 444 kts 26°
2026-04-30 06:01 -4.79095 114.05912 38044 ft 444 kts 26°
2026-04-30 06:01 -4.76327 114.07289 38166 ft 444 kts 26°
2026-04-30 06:01 -4.73553 114.08669 38273 ft 444 kts 26°
2026-04-30 06:02 -4.68953 114.10956 38480 ft 444 kts 26°
2026-04-30 06:02 -4.66183 114.12334 38608 ft 444 kts 26°
2026-04-30 06:02 -4.63415 114.13710 38723 ft 444 kts 26°
2026-04-30 06:03 -4.56974 114.16913 38839 ft 445 kts 26°
2026-04-30 06:03 -4.52332 114.19219 38841 ft 444 kts 26°
2026-04-30 06:04 -4.46831 114.21954 38842 ft 444 kts 26°
2026-04-30 06:05 -4.38534 114.26079 38832 ft 443 kts 26°
2026-04-30 06:05 -4.33017 114.28819 38829 ft 442 kts 26°
2026-04-30 06:06 -4.27496 114.31561 38828 ft 442 kts 26°
2026-04-30 06:06 -4.21980 114.34302 38816 ft 442 kts 26°
2026-04-30 06:07 -4.16458 114.37043 38816 ft 443 kts 26°
2026-04-30 06:07 -4.10934 114.39787 38820 ft 443 kts 26°
2026-04-30 06:08 -4.05409 114.42530 38823 ft 444 kts 26°
2026-04-30 06:08 -3.99906 114.45261 38827 ft 444 kts 26°
2026-04-30 06:09 -3.94364 114.48011 38827 ft 444 kts 26°
2026-04-30 06:09 -3.88825 114.50760 38830 ft 445 kts 26°
2026-04-30 06:10 -3.83278 114.53513 38831 ft 445 kts 26°
2026-04-30 06:10 -3.77730 114.56266 38836 ft 445 kts 26°
2026-04-30 06:11 -3.72169 114.59022 38838 ft 446 kts 26°
2026-04-30 06:11 -3.66611 114.61778 38839 ft 446 kts 26°
2026-04-30 06:12 -3.61053 114.64535 38840 ft 446 kts 26°
2026-04-30 06:12 -3.55492 114.67293 38841 ft 446 kts 26°
2026-04-30 06:13 -3.49927 114.70051 38841 ft 446 kts 26°
2026-04-30 06:13 -3.44554 114.73143 38840 ft 446 kts 35°
2026-04-30 06:14 -3.39787 114.77035 38839 ft 446 kts 44°
2026-04-30 06:14 -3.35405 114.81427 38835 ft 445 kts 45°
2026-04-30 06:15 -3.31016 114.85808 38835 ft 445 kts 45°
2026-04-30 06:15 -3.26633 114.90186 38835 ft 445 kts 45°
2026-04-30 06:16 -3.22250 114.94566 38834 ft 445 kts 45°
2026-04-30 06:16 -3.17870 114.98944 38833 ft 445 kts 45°
2026-04-30 06:17 -3.13491 115.03320 38832 ft 445 kts 45°
2026-04-30 06:17 -3.09117 115.07691 38830 ft 444 kts 45°
2026-04-30 06:18 -3.04744 115.12060 38832 ft 444 kts 45°
2026-04-30 06:18 -3.00371 115.16428 38836 ft 444 kts 45°
2026-04-30 06:19 -2.96029 115.20766 38834 ft 444 kts 44°
2026-04-30 06:19 -2.91657 115.25129 38832 ft 444 kts 45°
2026-04-30 06:20 -2.87287 115.29492 38832 ft 444 kts 45°
2026-04-30 06:20 -2.82922 115.33850 38829 ft 443 kts 45°
2026-04-30 06:21 -2.78558 115.38208 38834 ft 444 kts 44°
2026-04-30 06:21 -2.74191 115.42567 38838 ft 444 kts 44°
2026-04-30 06:22 -2.69821 115.46928 38839 ft 444 kts 44°
2026-04-30 06:22 -2.65451 115.51289 38838 ft 443 kts 45°
2026-04-30 06:23 -2.61111 115.55621 38840 ft 443 kts 45°
2026-04-30 06:23 -2.56750 115.59972 38843 ft 443 kts 44°
2026-04-30 06:24 -2.52390 115.64323 38840 ft 442 kts 44°
2026-04-30 06:24 -2.48034 115.68669 38839 ft 442 kts 44°
2026-04-30 06:25 -2.43682 115.73009 38832 ft 440 kts 44°
2026-04-30 06:25 -2.39345 115.77333 38833 ft 440 kts 44°
2026-04-30 06:26 -2.35009 115.81657 38833 ft 440 kts 44°
2026-04-30 06:26 -2.30678 115.85987 38832 ft 440 kts 45°
2026-04-30 06:27 -2.26387 115.90366 38836 ft 440 kts 45°
2026-04-30 06:27 -2.22103 115.94746 38836 ft 440 kts 45°
2026-04-30 06:28 -2.17821 115.99112 38835 ft 440 kts 45°
2026-04-30 06:28 -2.13563 116.03449 38835 ft 440 kts 45°
2026-04-30 06:29 -2.09274 116.07819 38836 ft 440 kts 45°
2026-04-30 06:29 -2.04989 116.12181 38835 ft 440 kts 45°
2026-04-30 06:30 -2.00707 116.16543 38833 ft 439 kts 45°
2026-04-30 06:30 -1.96428 116.20902 38832 ft 439 kts 45°
2026-04-30 06:31 -1.92145 116.25264 38831 ft 439 kts 45°
2026-04-30 06:31 -1.87895 116.29591 38830 ft 439 kts 45°
2026-04-30 06:32 -1.83615 116.33946 38830 ft 439 kts 45°
2026-04-30 06:32 -1.79331 116.38307 38831 ft 439 kts 45°
2026-04-30 06:33 -1.75056 116.42659 38830 ft 438 kts 45°
2026-04-30 06:33 -1.70780 116.47010 38830 ft 439 kts 45°
2026-04-30 06:34 -1.66503 116.51366 38831 ft 439 kts 45°
2026-04-30 06:34 -1.62246 116.55699 38830 ft 439 kts 45°
2026-04-30 06:35 -1.57969 116.60050 38830 ft 438 kts 45°
2026-04-30 06:35 -1.53697 116.64397 38830 ft 439 kts 45°
2026-04-30 06:36 -1.49421 116.68750 38830 ft 439 kts 45°
2026-04-30 06:36 -1.45140 116.73106 38830 ft 439 kts 45°
2026-04-30 06:37 -1.40857 116.77461 38832 ft 439 kts 45°
2026-04-30 06:37 -1.36578 116.81814 38833 ft 439 kts 45°
2026-04-30 06:38 -1.32300 116.86167 38833 ft 439 kts 45°
2026-04-30 06:38 -1.28101 116.90539 38837 ft 439 kts 51°
2026-04-30 06:39 -1.24975 116.95747 38833 ft 438 kts 68°
2026-04-30 06:39 -1.23504 117.01643 38830 ft 439 kts 82°
2026-04-30 06:40 -1.22678 117.07685 38829 ft 439 kts 81°
2026-04-30 06:40 -1.21832 117.13725 38830 ft 439 kts 81°
2026-04-30 06:41 -1.20989 117.19767 38832 ft 439 kts 81°
2026-04-30 06:41 -1.20145 117.25810 38833 ft 439 kts 81°
2026-04-30 06:42 -1.19302 117.31859 38835 ft 440 kts 81°
2026-04-30 06:42 -1.18460 117.37909 38837 ft 440 kts 81°
2026-04-30 06:43 -1.17615 117.43967 38838 ft 440 kts 81°
2026-04-30 06:43 -1.16772 117.50015 38832 ft 439 kts 81°
2026-04-30 06:44 -1.15934 117.56037 38832 ft 438 kts 81°
2026-04-30 06:44 -1.15098 117.62024 38832 ft 438 kts 81°
2026-04-30 06:45 -1.14257 117.68054 38832 ft 438 kts 81°
2026-04-30 06:45 -1.13415 117.74082 38832 ft 438 kts 81°
2026-04-30 06:46 -1.12574 117.80109 38832 ft 438 kts 81°
2026-04-30 06:46 -1.11732 117.86143 38834 ft 438 kts 81°
2026-04-30 06:47 -1.10889 117.92174 38834 ft 438 kts 81°
2026-04-30 06:47 -1.10049 117.98203 38831 ft 437 kts 81°
2026-04-30 06:48 -1.09211 118.04220 38833 ft 437 kts 81°
2026-04-30 06:48 -1.08371 118.10228 38834 ft 437 kts 81°
2026-04-30 06:49 -1.07535 118.16198 38833 ft 436 kts 81°
2026-04-30 06:49 -1.06697 118.22205 38832 ft 436 kts 81°
2026-04-30 06:50 -1.05855 118.28212 38832 ft 436 kts 81°
2026-04-30 06:50 -1.05017 118.34216 38830 ft 436 kts 81°
2026-04-30 06:51 -1.04181 118.40217 38829 ft 436 kts 82°
2026-04-30 06:51 -1.03343 118.46216 38829 ft 436 kts 82°
2026-04-30 06:52 -1.02512 118.52213 38828 ft 436 kts 83°
2026-04-30 06:52 -1.02249 118.55222 38677 ft 434 kts 85°
2026-04-30 06:52 -1.02008 118.58227 38058 ft 434 kts 85°
2026-04-30 06:52 -1.01762 118.61246 36940 ft 438 kts 85°
2026-04-30 06:53 -1.01511 118.64300 35779 ft 443 kts 85°
2026-04-30 06:53 -1.01262 118.67338 34556 ft 448 kts 85°
2026-04-30 06:53 -1.01005 118.70464 33208 ft 455 kts 85°
2026-04-30 06:53 -1.00745 118.73640 31906 ft 460 kts 85°
2026-04-30 06:54 -1.00483 118.76830 30637 ft 462 kts 85°
2026-04-30 06:54 -1.00308 118.78961 29772 ft 464 kts 85°
2026-04-30 06:54 -1.00045 118.82175 28429 ft 465 kts 85°
2026-04-30 06:54 -0.99780 118.85399 26972 ft 468 kts 85°
2026-04-30 06:55 -0.99512 118.88651 25426 ft 471 kts 85°
2026-04-30 06:55 -0.99152 118.93038 23243 ft 476 kts 86°
2026-04-30 06:55 -0.98974 118.95211 22374 ft 472 kts 86°
2026-04-30 06:55 -0.98707 118.98458 21172 ft 465 kts 86°
2026-04-30 06:56 -0.98445 119.01649 20030 ft 456 kts 86°
2026-04-30 06:56 -0.98188 119.04783 18868 ft 449 kts 86°
2026-04-30 06:56 -0.97935 119.07866 17723 ft 441 kts 85°
2026-04-30 06:56 -0.97685 119.10907 16557 ft 434 kts 85°
2026-04-30 06:57 -0.97440 119.13891 15414 ft 428 kts 85°
2026-04-30 06:57 -0.97199 119.16834 14243 ft 422 kts 85°
2026-04-30 06:57 -0.96962 119.19730 13133 ft 415 kts 85°
2026-04-30 06:57 -0.96728 119.22587 11957 ft 409 kts 85°
2026-04-30 06:58 -0.96481 119.25394 10855 ft 403 kts 84°
2026-04-30 06:58 -0.96151 119.28155 9758 ft 397 kts 82°
2026-04-30 06:58 -0.95795 119.30847 9144 ft 379 kts 82°
2026-04-30 06:58 -0.95463 119.33362 8930 ft 352 kts 82°
2026-04-30 06:59 -0.95158 119.35712 8709 ft 330 kts 82°
2026-04-30 06:59 -0.94882 119.37889 8519 ft 310 kts 83°
2026-04-30 06:59 -0.94624 119.39966 8275 ft 294 kts 83°
2026-04-30 06:59 -0.94381 119.41935 8153 ft 281 kts 83°
2026-04-30 07:00 -0.94136 119.43910 8069 ft 288 kts 83°
2026-04-30 07:00 -0.93888 119.45905 7994 ft 289 kts 83°
2026-04-30 07:00 -0.93643 119.47889 7991 ft 286 kts 83°
2026-04-30 07:00 -0.93400 119.49859 7988 ft 286 kts 83°
2026-04-30 07:01 -0.93156 119.51831 7991 ft 287 kts 83°
2026-04-30 07:01 -0.92911 119.53808 7990 ft 287 kts 83°
2026-04-30 07:01 -0.92668 119.55764 7990 ft 286 kts 83°
2026-04-30 07:01 -0.92424 119.57738 7991 ft 285 kts 83°
2026-04-30 07:02 -0.92181 119.59710 7986 ft 286 kts 83°
2026-04-30 07:02 -0.91935 119.61689 7985 ft 287 kts 83°
2026-04-30 07:02 -0.91691 119.63669 7990 ft 286 kts 83°
2026-04-30 07:02 -0.91446 119.65645 7990 ft 287 kts 83°
2026-04-30 07:03 -0.91202 119.67623 7989 ft 287 kts 83°
2026-04-30 07:03 -0.90958 119.69599 7994 ft 286 kts 83°
2026-04-30 07:03 -0.90714 119.71579 7999 ft 287 kts 83°
2026-04-30 07:03 -0.90471 119.73562 8003 ft 287 kts 83°
2026-04-30 07:04 -0.90227 119.75519 7999 ft 288 kts 82°
2026-04-30 07:04 -0.89981 119.77500 7994 ft 287 kts 83°
2026-04-30 07:04 -0.89732 119.79497 7994 ft 291 kts 83°
2026-04-30 07:04 -0.89485 119.81490 7996 ft 287 kts 83°
2026-04-30 07:05 -0.88705 119.85364 7994 ft 286 kts 60°
2026-04-30 07:05 -0.87433 119.86815 7999 ft 272 kts 34°
2026-04-30 07:05 -0.85743 119.87501 7997 ft 256 kts
2026-04-30 07:06 -0.84024 119.87429 7992 ft 242 kts 345°
2026-04-30 07:06 -0.82435 119.86785 7995 ft 250 kts 336°
2026-04-30 07:06 -0.80859 119.86072 7994 ft 247 kts 336°
2026-04-30 07:06 -0.79290 119.85371 7997 ft 247 kts 336°
2026-04-30 07:07 -0.77717 119.84670 7995 ft 247 kts 337°
2026-04-30 07:07 -0.76142 119.83972 7995 ft 247 kts 337°
2026-04-30 07:07 -0.74572 119.83275 8006 ft 246 kts 337°
2026-04-30 07:07 -0.73026 119.82591 8003 ft 245 kts 337°
2026-04-30 07:08 -0.71412 119.82064 7993 ft 244 kts 357°
2026-04-30 07:08 -0.69749 119.82341 8000 ft 245 kts 24°
2026-04-30 07:08 -0.68108 119.82810 8003 ft 245 kts
2026-04-30 07:08 -0.66459 119.82445 8006 ft 246 kts 332°
2026-04-30 07:09 -0.65192 119.81308 8000 ft 249 kts 307°
2026-04-30 07:09 -0.64149 119.79913 7994 ft 249 kts 310°
2026-04-30 07:09 -0.62936 119.78681 8005 ft 248 kts 321°
2026-04-30 07:09 -0.61540 119.77679 7937 ft 247 kts 329°
2026-04-30 07:10 -0.60040 119.76854 7828 ft 247 kts 334°
2026-04-30 07:10 -0.58483 119.76116 7591 ft 247 kts 336°
2026-04-30 07:10 -0.56938 119.75431 7340 ft 244 kts 337°
2026-04-30 07:10 -0.55388 119.74755 7104 ft 242 kts 337°
2026-04-30 07:11 -0.53844 119.74077 7022 ft 242 kts 337°
2026-04-30 07:11 -0.52310 119.73363 6989 ft 243 kts 328°
2026-04-30 07:11 -0.51159 119.72160 7003 ft 246 kts 298°
2026-04-30 07:11 -0.50756 119.70519 7006 ft 247 kts 267°
2026-04-30 07:12 -0.51241 119.68887 7000 ft 248 kts 236°
2026-04-30 07:12 -0.52483 119.67715 6995 ft 243 kts 205°
2026-04-30 07:12 -0.54040 119.67373 6995 ft 222 kts 172°
2026-04-30 07:12 -0.55446 119.67918 7007 ft 220 kts 138°
2026-04-30 07:13 -0.56361 119.69121 7002 ft 218 kts 115°
2026-04-30 07:13 -0.56972 119.70498 6995 ft 217 kts 110°
2026-04-30 07:13 -0.57519 119.71905 7001 ft 217 kts 109°
2026-04-30 07:13 -0.58046 119.73296 7001 ft 216 kts 109°
2026-04-30 07:14 -0.58644 119.74673 6988 ft 217 kts 124°
2026-04-30 07:14 -0.59793 119.75648 6993 ft 222 kts 157°
2026-04-30 07:14 -0.61308 119.75841 6997 ft 223 kts 190°
2026-04-30 07:14 -0.62691 119.75172 7004 ft 224 kts 224°
2026-04-30 07:15 -0.63480 119.73854 7003 ft 224 kts 258°
2026-04-30 07:15 -0.63414 119.72323 6996 ft 223 kts 293°
2026-04-30 07:15 -0.62521 119.71095 7004 ft 220 kts 327°
2026-04-30 07:15 -0.61118 119.70576 7012 ft 216 kts 358°
2026-04-30 07:16 -0.59620 119.70651 7000 ft 215 kts 11°
2026-04-30 07:16 -0.58203 119.71062 6999 ft 216 kts 27°
2026-04-30 07:16 -0.57014 119.71951 6999 ft 215 kts 53°
2026-04-30 07:16 -0.56428 119.73305 6994 ft 215 kts 85°
2026-04-30 07:17 -0.56694 119.74757 6999 ft 217 kts 119°
2026-04-30 07:17 -0.57755 119.75830 6995 ft 221 kts 153°
2026-04-30 07:17 -0.60573 119.76850 6988 ft 200 kts 154°
2026-04-30 07:18 -0.61735 119.77427 6968 ft 178 kts 152°
2026-04-30 07:18 -0.62816 119.77974 6725 ft 171 kts 152°
2026-04-30 07:18 -0.63881 119.78493 6427 ft 168 kts 153°
2026-04-30 07:18 -0.64935 119.78986 6080 ft 169 kts 154°
2026-04-30 07:19 -0.65981 119.79461 5702 ft 163 kts 154°
2026-04-30 07:19 -0.67016 119.79925 5213 ft 163 kts 154°
2026-04-30 07:19 -0.68058 119.80390 4704 ft 165 kts 155°
2026-04-30 07:19 -0.69103 119.80855 4204 ft 164 kts 155°
2026-04-30 07:20 -0.70143 119.81316 3704 ft 163 kts 155°
2026-04-30 07:20 -0.71175 119.81776 3292 ft 158 kts 155°
2026-04-30 07:20 -0.72082 119.82181 3247 ft 135 kts 155°
2026-04-30 07:20 -0.72967 119.82574 3025 ft 141 kts 155°
2026-04-30 07:21 -0.73871 119.82978 2931 ft 141 kts 155°
2026-04-30 07:21 -0.74758 119.83372 2847 ft 141 kts 155°
2026-04-30 07:21 -0.75657 119.83773 2761 ft 142 kts 155°
2026-04-30 07:21 -0.76556 119.84172 2662 ft 141 kts 155°
2026-04-30 07:22 -0.78351 119.84969 2292 ft 140 kts 155°
2026-04-30 07:22 -0.79243 119.85365 2096 ft 140 kts 155°
2026-04-30 07:22 -0.80131 119.85759 2015 ft 139 kts 154°
2026-04-30 07:23 -0.81018 119.86157 2019 ft 140 kts 155°
2026-04-30 07:23 -0.81895 119.86545 2026 ft 140 kts 155°
2026-04-30 07:23 -0.82788 119.86939 2002 ft 141 kts 155°
2026-04-30 07:23 -0.83673 119.87327 1882 ft 137 kts 155°
2026-04-30 07:24 -0.84543 119.87711 1601 ft 137 kts 155°
2026-04-30 07:24 -0.85410 119.88096 1385 ft 137 kts 155°
2026-04-30 07:24 -0.86294 119.88489 1186 ft 138 kts 155°
2026-04-30 07:24 -0.87169 119.88872 1035 ft 138 kts 156°
2026-04-30 07:25 -0.88061 119.89242 830 ft 138 kts 156°
2026-04-30 07:25 -0.88930 119.89641 649 ft 138 kts 154°
2026-04-30 07:25 -0.89800 119.90037 465 ft 137 kts 155°
2026-04-30 07:25 -0.90668 119.90432 261 ft 137 kts 155°
2026-04-30 07:26 -0.91475 119.90794 230 ft 110 kts 156°
2026-04-30 07:26 -0.92022 119.91043 230 ft 51 kts 155°
2026-04-30 07:26 -0.92303 119.91170 227 ft 45 kts 155°
2026-04-30 07:26 -0.92572 119.91291 229 ft 39 kts 156°
2026-04-30 07:27 -0.92701 119.91362 228 ft 5 kts 188°
2026-04-30 07:27 -0.92702 119.91353 228 ft 1 kts 289°
2026-04-30 07:27 -0.92658 119.91327 229 ft 13 kts 335°
2026-04-30 07:27 -0.92554 119.91280 228 ft 19 kts 335°
2026-04-30 07:28 -0.92416 119.91219 229 ft 24 kts 335°
2026-04-30 07:28 -0.92244 119.91142 230 ft 29 kts 336°
2026-04-30 07:28 -0.92048 119.91053 230 ft 33 kts 335°
2026-04-30 07:28 -0.91879 119.90974 232 ft 16 kts 319°
2026-04-30 07:29 -0.91888 119.90902 231 ft 12 kts 248°
2026-04-30 07:29 -0.91917 119.90833 229 ft 5 kts 247°
2026-04-30 07:29 -0.91900 119.90799 229 ft 7 kts 326°
2026-04-30 07:29 -0.91844 119.90773 229 ft 10 kts 336°
2026-04-30 07:30 -0.91795 119.90737 229 ft 6 kts 268°
2026-04-30 07:30 -0.91808 119.90700 229 ft 2 kts 245°
2026-04-30 07:30 -0.91809 119.90699 230 ft 0 kts 245°